Vohburg — V2OW7 — position and weather

sailwx.info

Track history (hours):
 
Tides and Currents Weather Stations Pressure Air Temp Water Temp Dewpoint Dewpoint Depression Visibility Wind Speed Wind Dir Waves Ship Positions

Vohburg

Last reported at 2014-Dec-23 04:33 UTC. Time now 2014-Dec-23 05:09 UTC.
Position N 54°43' E 012°50'.

Length 140 m; draft 7.1 m.

Type: Ship (hazmat cat A). MMSI: 305773000.

Date/timePositionNaut miles runAvg speedWind from/ knotsBaromVisibWave heightAir tempDewpointWater temp
2014-Dec-23 04:33N 54°43' E 012°50'1717.2
2014-Dec-23 03:33N 54°36' E 012°23'1616.4
2014-Dec-23 02:33N 54°24' E 012°04'1817.6
2014-Dec-23 01:33N 54°28' E 011°35'1919.0
2014-Dec-23 00:33N 54°35' E 011°04'1817.9
2014-Dec-22 23:33N 54°33' E 010°34'1313.2
2014-Dec-22 22:34N 54°26' E 010°14'6 5.6
2014-Dec-22 21:33N 54°22' E 010°08'7 6.9
2014-Dec-22 20:33N 54°20' E 009°57'6 6.4
2014-Dec-22 19:33N 54°21' E 009°46'16 7.6
2014-Dec-22 17:29N 54°10' E 009°26'6 6.1
2014-Dec-22 16:31N 54°06' E 009°20'4 4.2
2014-Dec-22 15:33N 54°02' E 009°18'8 7.9
2014-Dec-22 14:33N 53°55' E 009°11'2 2.4
2014-Dec-22 13:33N 53°53' E 009°08'1110.9
2014-Dec-22 12:34N 53°50' E 008°51'1211.8
2014-Dec-22 11:33N 53°58' E 008°35'1817.9
2014-Dec-22 10:33N 53°59' E 008°04'2617.6
2014-Dec-22 09:05N 53°54' E 007°21'4517.9
2014-Dec-22 06:33N 53°42' E 006°07'1818.0
2014-Dec-22 05:33N 53°36' E 005°39'1818.2
2014-Dec-22 04:33N 53°30' E 005°09'1717.2
2014-Dec-22 03:33N 53°24' E 004°42'8840.7
2014-Dec-22 01:24N 52°51' E 002°28'5931.8
2014-Dec-21 23:33N 52°23' E 003°53'1615.5
2014-Dec-21 22:33N 52°08' E 003°55'1313.0
2014-Dec-21 21:33N 51°58' E 004°09'1010.2
2014-Dec-21 20:33N 51°54' E 004°24'1 1.3
2014-Dec-21 19:33N 51°53' E 004°25'0 0.0
2014-Dec-21 18:33N 51°53' E 004°25'0 0.0
2014-Dec-21 17:33N 51°53' E 004°25'0 0.0
2014-Dec-21 16:33N 51°53' E 004°25'0 0.0
2014-Dec-21 15:33N 51°53' E 004°25'0 0.0
2014-Dec-21 14:33N 51°53' E 004°25'0 0.0
2014-Dec-21 13:30N 51°53' E 004°25'0 0.0
2014-Dec-21 12:33N 51°53' E 004°25'0 0.0
2014-Dec-21 11:33N 51°53' E 004°25'0 0.0
2014-Dec-21 10:33N 51°53' E 004°25'0 0.0
2014-Dec-21 09:33N 51°53' E 004°25'0 0.0
2014-Dec-21 08:33N 51°53' E 004°25'0 0.0
2014-Dec-21 07:33N 51°53' E 004°25'0 0.0
2014-Dec-21 06:32N 51°53' E 004°25'0 0.0
2014-Dec-21 05:32N 51°53' E 004°25'0 0.0
2014-Dec-21 04:33N 51°53' E 004°25'0 0.1
2014-Dec-21 03:33N 51°53' E 004°25'8 8.3
2014-Dec-21 02:34N 51°56' E 004°13'1514.9
2014-Dec-21 01:34N 52°02' E 003°50'3115.4
2014-Dec-20 23:33N 52°18' E 003°08'5317.3
2014-Dec-20 20:31N 52°52' E 002°02'1718.2
2014-Dec-20 19:33N 53°02' E 001°38'5417.6
2014-Dec-20 16:31N 53°44' E 000°42'1718.1
2014-Dec-20 15:33N 53°56' E 000°21'1818.1
2014-Dec-20 14:33N 54°09' W 000°01'1818.4
2014-Dec-20 13:33N 54°23' W 000°22'1818.2
2014-Dec-20 12:33N 54°36' W 000°43'13 1.1
2014-Dec-20 00:33N 54°41' W 001°04'9 9.0
2014-Dec-19 23:33N 54°43' W 000°49'1111.0
2014-Dec-19 22:32N 54°46' W 000°30'1313.2
2014-Dec-19 21:33N 54°49' W 000°08'28811.0
2014-Dec-18 19:27N 57°03' E 007°27'1415.2
2014-Dec-18 18:32N 57°09' E 007°50'1515.6
2014-Dec-18 17:33N 57°15' E 008°16'7815.6
2014-Dec-18 12:33N 57°47' E 010°29'1515.4
2014-Dec-18 11:33N 57°43' E 010°56'1817.7
2014-Dec-18 10:33N 57°31' E 011°20'1717.1
2014-Dec-18 09:33N 57°15' E 011°34'1717.3
2014-Dec-18 08:33N 56°59' E 011°45'1717.0
2014-Dec-18 07:33N 56°43' E 011°55'3416.9
2014-Dec-18 05:33N 56°14' E 012°25'1616.5
2014-Dec-18 04:33N 55°60' E 012°42'1515.2
2014-Dec-18 03:33N 55°45' E 012°41'1413.9
2014-Dec-18 02:34N 55°31' E 012°42'1413.7
2014-Dec-18 01:34N 55°17' E 012°45'1616.3
2014-Dec-18 00:34N 55°15' E 013°13'1716.7
2014-Dec-17 23:33N 55°15' E 013°43'1616.0
2014-Dec-17 22:33N 55°14' E 014°11'1616.1
2014-Dec-17 21:33N 55°24' E 014°33'1616.4
2014-Dec-17 20:33N 55°29' E 015°01'1717.3
2014-Dec-17 19:33N 55°33' E 015°30'354 8.6
2014-Dec-16 02:33N 59°39' E 023°26'1815.2
2014-Dec-16 01:22N 59°44' E 023°60'1315.8
2014-Dec-16 00:31N 59°47' E 024°25'59 3.2
2014-Dec-15 06:23N 59°60' E 026°20'1315.8
2014-Dec-15 05:33N 60°01' E 026°45'2 0.1
2014-Dec-13 20:32N 59°59' E 026°44'6312.0
2014-Dec-13 15:17N 59°46' E 024°41'912.4
2014-Dec-13 14:34N 59°44' E 024°23'2512.4
2014-Dec-13 12:31N 59°35' E 023°36'  
Track history (hours):
 
Tides and Currents Weather Stations Pressure Air Temp Water Temp Dewpoint Dewpoint Depression Visibility Wind Speed Wind Dir Waves Ship Positions

Vohburg

Last reported at 2014-Dec-23 04:33 UTC. Time now 2014-Dec-23 05:09 UTC.
Position N 54°43' E 012°50'.

Length 140 m; draft 7.1 m.

Type: Ship (hazmat cat A). MMSI: 305773000.

Date/timePositionNaut miles runAvg speedWind from/ knotsBaromVisibWave heightAir tempDewpointWater temp
2014-Dec-23 04:33N 54°43' E 012°50'1717.2
2014-Dec-23 03:33N 54°36' E 012°23'1616.4
2014-Dec-23 02:33N 54°24' E 012°04'1817.6
2014-Dec-23 01:33N 54°28' E 011°35'1919.0
2014-Dec-23 00:33N 54°35' E 011°04'1817.9
2014-Dec-22 23:33N 54°33' E 010°34'1313.2
2014-Dec-22 22:34N 54°26' E 010°14'6 5.6
2014-Dec-22 21:33N 54°22' E 010°08'7 6.9
2014-Dec-22 20:33N 54°20' E 009°57'6 6.4
2014-Dec-22 19:33N 54°21' E 009°46'16 7.6
2014-Dec-22 17:29N 54°10' E 009°26'6 6.1
2014-Dec-22 16:31N 54°06' E 009°20'4 4.2
2014-Dec-22 15:33N 54°02' E 009°18'8 7.9
2014-Dec-22 14:33N 53°55' E 009°11'2 2.4
2014-Dec-22 13:33N 53°53' E 009°08'1110.9
2014-Dec-22 12:34N 53°50' E 008°51'1211.8
2014-Dec-22 11:33N 53°58' E 008°35'1817.9
2014-Dec-22 10:33N 53°59' E 008°04'2617.6
2014-Dec-22 09:05N 53°54' E 007°21'4517.9
2014-Dec-22 06:33N 53°42' E 006°07'1818.0
2014-Dec-22 05:33N 53°36' E 005°39'1818.2
2014-Dec-22 04:33N 53°30' E 005°09'1717.2
2014-Dec-22 03:33N 53°24' E 004°42'8840.7
2014-Dec-22 01:24N 52°51' E 002°28'5931.8
2014-Dec-21 23:33N 52°23' E 003°53'1615.5
2014-Dec-21 22:33N 52°08' E 003°55'1313.0
2014-Dec-21 21:33N 51°58' E 004°09'1010.2
2014-Dec-21 20:33N 51°54' E 004°24'1 1.3
2014-Dec-21 19:33N 51°53' E 004°25'0 0.0
2014-Dec-21 18:33N 51°53' E 004°25'0 0.0
2014-Dec-21 17:33N 51°53' E 004°25'0 0.0
2014-Dec-21 16:33N 51°53' E 004°25'0 0.0
2014-Dec-21 15:33N 51°53' E 004°25'0 0.0
2014-Dec-21 14:33N 51°53' E 004°25'0 0.0
2014-Dec-21 13:30N 51°53' E 004°25'0 0.0
2014-Dec-21 12:33N 51°53' E 004°25'0 0.0
2014-Dec-21 11:33N 51°53' E 004°25'0 0.0
2014-Dec-21 10:33N 51°53' E 004°25'0 0.0
2014-Dec-21 09:33N 51°53' E 004°25'0 0.0
2014-Dec-21 08:33N 51°53' E 004°25'0 0.0
2014-Dec-21 07:33N 51°53' E 004°25'0 0.0
2014-Dec-21 06:32N 51°53' E 004°25'0 0.0
2014-Dec-21 05:32N 51°53' E 004°25'0 0.0
2014-Dec-21 04:33N 51°53' E 004°25'0 0.1
2014-Dec-21 03:33N 51°53' E 004°25'8 8.3
2014-Dec-21 02:34N 51°56' E 004°13'1514.9
2014-Dec-21 01:34N 52°02' E 003°50'3115.4
2014-Dec-20 23:33N 52°18' E 003°08'5317.3
2014-Dec-20 20:31N 52°52' E 002°02'1718.2
2014-Dec-20 19:33N 53°02' E 001°38'5417.6
2014-Dec-20 16:31N 53°44' E 000°42'1718.1
2014-Dec-20 15:33N 53°56' E 000°21'1818.1
2014-Dec-20 14:33N 54°09' W 000°01'1818.4
2014-Dec-20 13:33N 54°23' W 000°22'1818.2
2014-Dec-20 12:33N 54°36' W 000°43'13 1.1
2014-Dec-20 00:33N 54°41' W 001°04'9 9.0
2014-Dec-19 23:33N 54°43' W 000°49'1111.0
2014-Dec-19 22:32N 54°46' W 000°30'1313.2
2014-Dec-19 21:33N 54°49' W 000°08'28811.0
2014-Dec-18 19:27N 57°03' E 007°27'1415.2
2014-Dec-18 18:32N 57°09' E 007°50'1515.6
2014-Dec-18 17:33N 57°15' E 008°16'7815.6
2014-Dec-18 12:33N 57°47' E 010°29'1515.4
2014-Dec-18 11:33N 57°43' E 010°56'1817.7
2014-Dec-18 10:33N 57°31' E 011°20'1717.1
2014-Dec-18 09:33N 57°15' E 011°34'1717.3
2014-Dec-18 08:33N 56°59' E 011°45'1717.0
2014-Dec-18 07:33N 56°43' E 011°55'3416.9
2014-Dec-18 05:33N 56°14' E 012°25'1616.5
2014-Dec-18 04:33N 55°60' E 012°42'1515.2
2014-Dec-18 03:33N 55°45' E 012°41'1413.9
2014-Dec-18 02:34N 55°31' E 012°42'1413.7
2014-Dec-18 01:34N 55°17' E 012°45'1616.3
2014-Dec-18 00:34N 55°15' E 013°13'1716.7
2014-Dec-17 23:33N 55°15' E 013°43'1616.0
2014-Dec-17 22:33N 55°14' E 014°11'1616.1
2014-Dec-17 21:33N 55°24' E 014°33'1616.4
2014-Dec-17 20:33N 55°29' E 015°01'1717.3
2014-Dec-17 19:33N 55°33' E 015°30'354 8.6
2014-Dec-16 02:33N 59°39' E 023°26'1815.2
2014-Dec-16 01:22N 59°44' E 023°60'1315.8
2014-Dec-16 00:31N 59°47' E 024°25'59 3.2
2014-Dec-15 06:23N 59°60' E 026°20'1315.8
2014-Dec-15 05:33N 60°01' E 026°45'2 0.1
2014-Dec-13 20:32N 59°59' E 026°44'6312.0
2014-Dec-13 15:17N 59°46' E 024°41'912.4
2014-Dec-13 14:34N 59°44' E 024°23'2512.4
2014-Dec-13 12:31N 59°35' E 023°36'  

Dump ship's entire track history